Content
SEND FEEDBACK

Daily
Averages
Monthly
Summary
United States of America

BARNESVILLE, MARYLAND


Home > North America > United States > Maryland
Elevation: 555 feet     Latitude: 39 13N     Longitude: 077 20W

WEATHER
 
SELECT A DAY
Number of Records: 165,580;   Date Range: 10/17/07 - 10/20/14
 
SHARE

PRINT THIS DATA

[ ← Previous Day ]
WEATHER ALMANAC - JANUARY 31, 2013
[ Next Day → ]
[ °C ]   °F
Weather ElementAverageHighLow
Temperature40 °F57.2 °F (1:15 am)26.6 °F (10:15 pm)
Dewpoint24.7 °F55.4 °F (12:35 am)10.4 °F (8:15 pm)
Humidity55.9 %100 % (12:35 am)36 % (1:55 pm)
Barometer29.61 in29.92 in (11:15 pm)29.19 in (3:15 am)
Wind Speed17.3 mph34.5 mph (6:55 am)
Wind Gust46 mph (6:55 am)
Weather ElementAverage
Visibility9.8 mi
Wind DirectionWNW (287.6 °)

Weather ElementTotal
Precipitation0.95 in
Heating Degree Days23.1 (Base 65)
Averaged from 68 records on January 31, 2013
WEATHER CONDITIONS BREAKOUT
WIND DIRECTION BREAKOUT
WEATHER BY HOUR - JANUARY 31, 2013
[ °C ]   °F
Local TimeTemperatureDewpointHumidityBarometerVisibilityWind DirectionWind SpeedGust SpeedPrecipitationEventsConditions
12:35 AM55.4 °F55.4 °F100 %29.23 in8.0 miCalm0.10 inOvercast
12:55 AM55.4 °F53.6 °F94 %29.20 in7.0 miWest (270°)3.5 mph0.16 inOvercast
1:15 AM57.2 °F55.4 °F94 %29.23 in5.0 miWNW (300°)11.5 mph0.16 inOvercast
1:35 AM57.2 °F55.4 °F94 %29.25 in9.0 miWNW (290°)9.2 mph0.21 inMostly Cloudy
1:55 AM57.2 °F55.4 °F94 %29.25 in9.0 miWest (280°)12.7 mph23.0 mph0.27 inOvercast
2:15 AM55.4 °F53.6 °F94 %29.22 in10.0 miWest (260°)5.8 mph0.01 inOvercast
2:35 AM55.4 °F53.6 °F94 %29.22 in10.0 miWest (260°)4.6 mph0.01 inMostly Cloudy
2:55 AM55.4 °F53.6 °F94 %29.20 in10.0 miSW (220°)8.1 mph0.02 inMostly Cloudy
3:15 AM55.4 °F51.8 °F88 %29.19 in10.0 miWest (280°)8.1 mph17.3 mphMostly Cloudy
3:35 AM55.4 °F51.8 °F88 %29.22 in10.0 miWest (280°)9.2 mphMostly Cloudy
3:55 AM53.6 °F46.4 °F77 %29.24 in10.0 miNW (310°)25.3 mph35.7 mph0.01 inOvercast
4:15 AM51.8 °F42.8 °F71 %29.27 in10.0 miNW (310°)21.9 mph34.5 mphOvercast
4:35 AM48.2 °F37.4 °F66 %29.31 in10.0 miNW (310°)26.5 mph35.7 mphMostly Cloudy
4:55 AM46.4 °F33.8 °F62 %29.33 in10.0 miNW (320°)24.2 mph43.7 mphOvercast
5:15 AM46.4 °F32.0 °F57 %29.36 in10.0 miNW (320°)21.9 mph35.7 mphOvercast
5:35 AM44.6 °F30.2 °F57 %29.38 in10.0 miNW (310°)26.5 mph36.8 mphOvercast
5:55 AM44.6 °F28.4 °F53 %29.40 in10.0 miWNW (300°)28.8 mph44.9 mphMostly Cloudy
6:15 AM42.8 °F26.6 °F53 %29.42 in10.0 miWNW (300°)20.7 mph40.3 mphMostly Cloudy
6:35 AM42.8 °F26.6 °F53 %29.46 in10.0 miWNW (300°)18.4 mph27.6 mphScattered Clouds
6:55 AM42.8 °F28.4 °F57 %29.48 in10.0 miNW (310°)34.5 mph46.0 mphOvercast
7:15 AM39.2 °F24.8 °F56 %29.51 in10.0 miNW (310°)28.8 mph38.0 mphOvercast
7:35 AM39.2 °F24.8 °F56 %29.53 in10.0 miWNW (300°)19.6 mph32.2 mphMostly Cloudy
7:55 AM39.2 °F24.8 °F56 %29.55 in10.0 miNW (310°)16.1 mph26.5 mphScattered Clouds
8:15 AM39.2 °F21.2 °F49 %29.56 in10.0 miWNW (300°)20.7 mph27.6 mphScattered Clouds
8:35 AM39.2 °F21.2 °F49 %29.56 in10.0 miNW (310°)23.0 mph34.5 mphClear
8:55 AM39.2 °F21.2 °F49 %29.58 in10.0 miWNW (290°)24.2 mph34.5 mphPartly Cloudy
9:15 AM39.2 °F21.2 °F49 %29.59 in10.0 miWNW (300°)24.2 mph36.8 mphPartly Cloudy
9:35 AM39.2 °F23.0 °F52 %29.62 in7.0 miWest (280°)19.6 mph33.4 mphMostly Cloudy
9:55 AM39.2 °F21.2 °F49 %29.62 in10.0 miWNW (300°)19.6 mph36.8 mphMostly Cloudy
10:15 AM39.2 °F23.0 °F52 %29.64 in10.0 miWNW (300°)23.0 mph34.5 mphMostly Cloudy
10:35 AM39.2 °F19.4 °F45 %29.64 in10.0 miNW (310°)25.3 mph34.5 mphScattered Clouds
10:55 AM39.2 °F19.4 °F45 %29.65 in10.0 miWNW (300°)25.3 mph35.7 mphPartly Cloudy
11:15 AM41.0 °F19.4 °F42 %29.65 in10.0 miWNW (300°)18.4 mph28.8 mphClear
11:35 AM41.0 °F19.4 °F42 %29.66 in10.0 miNW (310°)16.1 mph29.9 mphClear
11:55 AM41.0 °F21.2 °F45 %29.67 in10.0 miNW (310°)21.9 mph33.4 mphPartly Cloudy
12:15 PM41.0 °F21.2 °F45 %29.68 in10.0 miWNW (290°)21.9 mph31.1 mphPartly Cloudy
12:35 PM39.2 °F19.4 °F45 %29.68 in10.0 miWNW (290°)19.6 mph33.4 mphPartly Cloudy
12:55 PM39.2 °F15.8 °F39 %29.69 in10.0 miWest (280°)21.9 mph32.2 mphScattered Clouds
1:15 PM39.2 °F15.8 °F39 %29.69 in10.0 miWest (280°)17.3 mph31.1 mphMostly Cloudy
1:35 PM39.2 °F15.8 °F39 %29.69 in10.0 miNW (310°)20.7 mph27.6 mphMostly Cloudy
1:55 PM39.2 °F14.0 °F36 %29.69 in10.0 miWNW (300°)25.3 mph32.2 mphScattered Clouds
2:15 PM39.2 °F17.6 °F42 %29.71 in10.0 miNW (320°)27.6 mph36.8 mphScattered Clouds
2:35 PM37.4 °F19.4 °F48 %29.73 in10.0 miNW (320°)23.0 mph34.5 mphMostly Cloudy
2:55 PM37.4 °F19.4 °F48 %29.74 in10.0 miNW (310°)20.7 mph26.5 mphMostly Cloudy
3:15 PM37.4 °F17.6 °F45 %29.74 in10.0 miNW (310°)23.0 mph33.4 mphPartly Cloudy
3:35 PM35.6 °F15.8 °F44 %29.76 in10.0 miWNW (290°)13.8 mph34.5 mphPartly Cloudy
3:55 PM35.6 °F15.8 °F44 %29.77 in10.0 miWest (280°)11.5 mph27.6 mphMostly Cloudy
4:15 PM35.6 °F15.8 °F44 %29.78 in10.0 miWNW (300°)24.2 mph39.1 mphMostly Cloudy
4:35 PM35.6 °F17.6 °F48 %29.79 in10.0 miWNW (300°)21.9 mph27.6 mphClear
4:55 PM35.6 °F14.0 °F41 %29.80 in10.0 miWest (280°)16.1 mph24.2 mphPartly Cloudy
5:15 PM35.6 °F12.2 °F38 %29.80 in10.0 miWNW (290°)21.9 mph33.4 mphPartly Cloudy
5:35 PM35.6 °F14.0 °F41 %29.82 in10.0 miWest (280°)17.3 mph28.8 mphScattered Clouds
5:55 PM33.8 °F15.8 °F48 %29.83 in10.0 miWest (280°)19.6 mph29.9 mphMostly Cloudy
6:15 PM33.8 °F15.8 °F48 %29.85 in10.0 miNNW (330°)17.3 mph26.5 mphMostly Cloudy
6:35 PM30.2 °F17.6 °F60 %29.87 in10.0 miWNW (300°)20.7 mph31.1 mphMostly Cloudy
6:55 PM30.2 °F17.6 °F60 %29.88 in10.0 miWNW (300°)21.9 mph31.1 mphPartly Cloudy
7:15 PM30.2 °F14.0 °F51 %29.90 in10.0 miWNW (300°)20.7 mph28.8 mphPartly Cloudy
7:35 PM30.2 °F12.2 °F47 %29.91 in10.0 miNW (320°)19.6 mph25.3 mphPartly Cloudy
8:15 PM28.4 °F10.4 °F47 %29.91 in10.0 miNW (310°)12.7 mph20.7 mphClear
8:35 PM28.4 °F10.4 °F47 %29.91 in10.0 miNW (310°)11.5 mph18.4 mphClear
8:55 PM28.4 °F10.4 °F47 %29.91 in10.0 miWNW (300°)10.4 mphClear
9:15 PM28.4 °F10.4 °F47 %29.91 in10.0 miWNW (300°)5.8 mphClear
9:35 PM28.4 °F10.4 °F47 %29.90 in10.0 miWNW (290°)4.6 mphClear
10:15 PM26.6 °F10.4 °F51 %29.91 in10.0 miCalmClear
10:35 PM26.6 °F10.4 °F51 %29.91 in10.0 miNW (310°)3.5 mphClear
11:15 PM28.4 °F10.4 °F47 %29.92 in10.0 miWSW (250°)3.5 mphClear
11:35 PM28.4 °F10.4 °F47 %29.91 in10.0 miWest (280°)3.5 mphClear
11:55 PM28.4 °F12.2 °F51 %29.91 in10.0 miWNW (290°)4.6 mphClear
Hourly data recorded from KGAI, located miles away from Barnesville, Maryland







STORIES FROM OUR PARTNERS